Regional Weather Roundup
Issued by NWS Upton, NY

Current Version | Previous Version | Graphics & Text | Print | Product List | Glossary Off
Versions: 1 2 3 4 5 6 7 8 9 10 11 12 13 14 15 16 17 18 19 20 21 22 23 24 25 26 27 28 29 30 31 32 33 34 35 36 37 38 39 40 41 42 43 44 45 46 47 48 49 50

000
ASUS41 KOKX 312304
RWROKX

REGIONAL WEATHER ROUNDUP
NATIONAL WEATHER SERVICE NEW YORK NY
700 PM EDT FRI JUL 31 2015

NOTE: "FAIR" INDICATES FEW OR NO CLOUDS BELOW 12,000 FEET WITH NO
SIGNIFICANT WEATHER AND/OR OBSTRUCTIONS TO VISIBILITY.

NYZ071-072-176-178-NJZ106-104-010000-
NEW YORK CITY METRO AREA


CITY           SKY/WX    TMP DP  RH WIND       PRES   REMARKS
CENTRAL PARK   SUNNY     86  50  28 CALM      29.82F
LAGUARDIA APRT MOSUNNY   87  53  31 NW10      29.79S
KENNEDY INTL   MOSUNNY   86  59  39 W8        29.80S
NEWARK/LIBERTY MOSUNNY   89  49  25 W13G20    29.79F
BRNX BOT. GARD   N/A     86  52  30 NW3       29.80F
TETERBORO      SUNNY     87  51  28 W3        29.78F
$$

NYZ177-179-078>081-010000-
LONG ISLAND NEW YORK

CITY           SKY/WX    TMP DP  RH WIND       PRES   REMARKS
FARMINGDALE    SUNNY     88  53  30 NW9       29.80S
ISLIP          MOSUNNY   86  53  32 NW8       29.78S
SHIRLEY        SUNNY     82  66  58 S8        29.80S
WESTHAMPTON    SUNNY     83  58  42 SW8       29.81S
MONTAUK POINT    N/A     82  64  54 SW5       29.80S
$$

NYZ052-065-067-010000-
HUDSON VALLEY

CITY           SKY/WX    TMP DP  RH WIND       PRES   REMARKS
WHITE PLAINS   SUNNY     84  53  34 W7        29.81S
NEWBURGH       SUNNY     84  55  37 W12       29.82F
MONTGOMERY     SUNNY     84  57  39 W5        29.81S
POUGHKEEPSIE   SUNNY     86  53  32 W7        29.79S
ALBANY         MOSUNNY   83  54  36 W8        29.78F
$$

NJZ001-105-106-008-010-013-015-019>022-104-010000-
NEW JERSEY

CITY           SKY/WX    TMP DP  RH WIND       PRES   REMARKS
NEWARK/LIBERTY MOSUNNY   89  49  25 W13G20    29.79F
TETERBORO      SUNNY     87  51  28 W3        29.78F
CALDWELL       SUNNY     87  51  28 W5        29.80F
MORRISTOWN     MOSUNNY   86  54  32 NW3       29.81F
SOMERVILLE     SUNNY     87  56  34 W3        29.79F
SUSSEX         SUNNY     83  62  49 CALM      29.82F
ANDOVER          N/A     81  62  52 CALM      29.83F
TRENTON        SUNNY     87  56  34 W6        29.81F
MILLVILLE      SUNNY     86  60  41 W8        29.83F
ATLANTIC CITY  SUNNY     86  60  41 W7        29.82F
WRIGHTSTOWN    SUNNY     85  60  41 NW7       29.79S
TOMS RIVER       N/A     88  57  35 NW7       29.81F
BELMAR         SUNNY     86  55  35 NW6       29.81F
$$

PAZ047>061-062-071-010000-
EASTERN PENNSYLVANIA

CITY           SKY/WX    TMP DP  RH WIND       PRES   REMARKS
PHILADELPHIA   MOSUNNY   89  54  30 NW12      29.83S
ALLENTOWN      SUNNY     83  59  44 W8        29.83S
SCRANTON       MOSUNNY   84  56  38 W10       29.83F
$$

CTZ002-004>006-009-010-012-RIZ004-006-007-MAZ004-011-015-010000-
SOUTHERN NEW ENGLAND
 IN CT

CITY           SKY/WX    TMP DP  RH WIND       PRES   REMARKS
BRADLEY INTL   MOSUNNY   84  55  36 NW5       29.78S
HARTFORD       SUNNY     86  55  34 NW6       29.77S
DANBURY        SUNNY     82  55  39 W6        29.82S
WTRBRY/OXFORD  SUNNY     81  57  44 NW6       29.85R
BRIDGEPORT     SUNNY     87  54  32 W9        29.78F
MERIDEN        MOSUNNY   86  56  35 W3        29.78S
NEW HAVEN      MOSUNNY   85  58  39 NW5       29.78F
CHESTER        FAIR      82  61  47 CALM      29.80S
GROTON         SUNNY     82  61  48 W8        29.77S
WILLIMANTIC    SUNNY     85  56  37 NW6       29.78S

 IN RI

CITY           SKY/WX    TMP DP  RH WIND       PRES   REMARKS
PROVIDENCE     MOSUNNY   85  56  37 W9        29.77S
BLOCK ISLAND     N/A     79  63  57 SW13G18   29.80S
WESTERLY       SUNNY     82  61  48 SW8       29.78S

 IN MA

CITY           SKY/WX    TMP DP  RH WIND       PRES   REMARKS
BOSTON         MOSUNNY   84  53  34 W13G22    29.75S
WORCESTER      SUNNY     77  53  43 W9        29.82S
WESTFIELD      SUNNY     83  53  35 W5        29.79S
PROVINCETOWN   CLEAR     81  59  47 W5        29.75S
NANTUCKET      CLEAR     75  70  84 SW10      29.78S
$$

ANZ330-335-338-340-345-350-353-355-010000-
COASTAL MARINE OBSERVATIONS


STATION/POSITION TIME  SKY/WX   TEMP    WIND        PRES    VSBY  WAVE
                                AIR SEA DIR/SP/G                  HT/PER
                 (UTC)          (F)     (DEG/KT/KT) (MB)    (MI)  (FT/S)
NY HARB ENTRANCE 2150            80 78  200/ 12/ 14 1008.9          3/ 7
4S FIRE IS       NOT AVBL
20S FIRE ISLAND  2150            78 77  210/  8/ 10 1009.0          4/ 7
GREAT SOUTH BAY  2215            79 82  230/ 10/ 12   N/A
23SW MTP         2250            77 75  250/  8/ 10 1008.5          3/ 7
HUDSON CANYON    NOT AVBL
KINGS POINT      2200            83 72   10/  9/ 11 1008.4
EXECUTION ROCKS  2200            82     310/  6/ 10   N/A
CENTRAL LI SOUND NOT AVBL
EASTERN LI SOUND 2200            77 70  260/ 10/ 12   N/A
ROBBINS REEF     2200            87     270/ 16/ 19 1007.9
$$


>>>>>>>>>>>>>>>>>>>>>>>>>>>> KEY <<<<<<<<<<<<<<<<<<<<<<<<<<<
>                                                          <
>     SKY/WX - SKY CONDITION/PRESENT WEATHER               <
>     TMP    - TEMPERATURE IN FAHRENHEIT                   <
>     DP     - DEWPOINT IN FAHRENHEIT                      <
>     RH     - RELATIVE HUMIDITY IN PERCENT                <
>     WIND   - DIRECTION AND SPEED IN MPH                  <
>     PRES   - MEAN SEA LEVEL PRESSURE IN INCHES OF HG     <
>     WCI    - WIND CHILL INDEX                            <
>     VSB    - VISIBILITY IN MILES                         <
>     HX     - HEAT INDEX                                  <
>     TC     - TEMPERATURE IN CELSIUS                      <
>     VRB    - VARIABLE WIND DIRECTION                     <
>                                                          <
>>>>>>>>>>>>>>>>>>>>>>>>>>>> KEY <<<<<<<<<<<<<<<<<<<<<<<<<<<





USA.gov is the U.S. government's official web portal to all federal, state and local government web resources and services.